Regional Weather Roundup
Issued by NWS

Home | Current Version | Previous Version | Text Only | Print | Product List | Glossary Off
Versions: 1 2 3 4 5 6 7 8 9 10 11 12 13 14 15 16 17 18 19 20 21 22 23 24 25 26 27 28 29 30 31 32 33 34 35 36 37 38 39 40 41 42 43 44 45 46 47 48 49 50

000
ASUS43 KBIS 270702
RWRND

NORTH DAKOTA REGIONAL WEATHER ROUNDUP
NATIONAL WEATHER SERVICE BISMARCK ND
200 AM CDT FRI MAY 27 2016

NOTE: "FAIR" INDICATES FEW OR NO CLOUDS BELOW 12,000 FEET WITH NO
SIGNIFICANT WEATHER AND/OR OBSTRUCTIONS TO VISIBILITY.


NDZ001>003-009>011-017-270800-
NORTHWEST NORTH DAKOTA

CITY           SKY/WX    TMP DP  RH WIND       PRES   REMARKS
WILLISTON      PTCLDY    51  48  89 N9        29.86F
MINOT          CLOUDY    57  53  86 NW9       29.82F
MINOT AFB      DRIZZLE   55  54  97 NW5       29.81F
$$

NDZ018>021-031>035-040>046-270800-
SOUTHWEST NORTH DAKOTA

CITY           SKY/WX    TMP DP  RH WIND       PRES   REMARKS
BISMARCK       PTCLDY    48  47  96 CALM      29.84R
DICKINSON      CLEAR     46  41  82 CALM      29.82F
GARRISON         N/A     49  47  93 NW7       29.83R
HETTINGER ARPT CLEAR     40  37  89 CALM      29.88R
$$

NDZ004>008-012>016-024-026-027-054-270800-
NORTHEAST NORTH DAKOTA

CITY           SKY/WX    TMP DP  RH WIND       PRES   REMARKS
GRAND FORKS    MOCLDY    55  53  93 S5        29.78S
GRND FRKS AFB  MOCLDY    52  52 100 CALM      29.79S
DEVILS LAKE    PTCLDY    52  51  97 CALM      29.82S
$$

NDZ022-023-025-028>030-036>039-047>053-270800-
SOUTHEAST NORTH DAKOTA

CITY           SKY/WX    TMP DP  RH WIND       PRES   REMARKS
FARGO          MOCLDY    58  56  93 VRB3      29.81R
JAMESTOWN      CLEAR     53  51  93 CALM      29.80R
$$




USA.gov is the U.S. government's official web portal to all federal, state and local government web resources and services.